TimePDT,TemperatureF,Dew PointF,Humidity,Sea Level PressureIn,VisibilityMPH,Wind Direction,Wind SpeedMPH,Gust SpeedMPH,PrecipitationIn,Events,Conditions,WindDirDegrees,DateUTC
12:53 AM,51.1,43.0,74,30.33,10.0,North,9.2,-,N/A,,Clear,350,2013-10-15 07:53:00
1:53 AM,51.1,42.1,71,30.33,10.0,North,11.5,-,N/A,,Clear,350,2013-10-15 08:53:00
2:53 AM,48.0,42.1,80,30.32,10.0,North,6.9,-,N/A,,Clear,360,2013-10-15 09:53:00
3:53 AM,48.9,41.0,74,30.31,10.0,North,9.2,-,N/A,,Clear,350,2013-10-15 10:53:00
4:53 AM,46.9,39.9,77,30.30,10.0,NNW,9.2,-,N/A,,Clear,340,2013-10-15 11:53:00
5:53 AM,45.0,39.0,80,30.30,10.0,NNW,4.6,-,N/A,,Clear,340,2013-10-15 12:53:00
6:53 AM,46.0,37.9,73,30.30,10.0,North,11.5,-,N/A,,Clear,360,2013-10-15 13:53:00
7:53 AM,46.9,37.9,71,30.30,10.0,North,8.1,-,N/A,,Clear,350,2013-10-15 14:53:00
8:53 AM,52.0,39.0,61,30.30,10.0,NNW,13.8,-,N/A,,Clear,340,2013-10-15 15:53:00
9:53 AM,55.9,39.9,55,30.29,10.0,North,12.7,-,N/A,,Clear,350,2013-10-15 16:53:00
10:53 AM,61.0,37.9,42,30.29,10.0,North,12.7,-,N/A,,Clear,10,2013-10-15 17:53:00
11:53 AM,63.0,37.9,40,30.27,10.0,NE,9.2,-,N/A,,Clear,40,2013-10-15 18:53:00
12:53 PM,66.0,37.0,34,30.25,10.0,North,9.2,-,N/A,,Clear,10,2013-10-15 19:53:00
1:53 PM,68.0,37.9,33,30.22,10.0,NE,10.4,-,N/A,,Clear,40,2013-10-15 20:53:00
2:53 PM,68.0,37.0,32,30.19,10.0,North,9.2,-,N/A,,Clear,10,2013-10-15 21:53:00
3:53 PM,69.1,37.0,31,30.19,10.0,North,9.2,-,N/A,,Clear,10,2013-10-15 22:53:00
4:53 PM,68.0,37.9,33,30.17,10.0,North,6.9,-,N/A,,Clear,10,2013-10-15 23:53:00
5:53 PM,66.0,39.9,38,30.16,10.0,North,4.6,-,N/A,,Clear,350,2013-10-16 00:53:00
6:53 PM,62.1,39.0,43,30.15,10.0,North,3.5,-,N/A,,Clear,360,2013-10-16 01:53:00
7:53 PM,55.0,41.0,59,30.15,10.0,NNW,6.9,-,N/A,,Clear,340,2013-10-16 02:53:00
8:53 PM,52.0,42.1,69,30.14,10.0,NNW,6.9,-,N/A,,Clear,340,2013-10-16 03:53:00
9:53 PM,50.0,42.1,74,30.14,10.0,NNW,4.6,-,N/A,,Clear,330,2013-10-16 04:53:00
10:53 PM,48.9,42.1,77,30.15,10.0,NNW,5.8,-,N/A,,Clear,340,2013-10-16 05:53:00
11:53 PM,46.0,42.1,86,30.14,10.0,North,3.5,-,N/A,,Clear,350,2013-10-16 06:53:00